Tracking 35334 objects as of 12-Sep-2026
HD Live streaming from Space Station
objects crossing your sky now

COSMOS 643

Track COSMOS 643 now!
10-day predictions
COSMOS 643 is classified as:


NORAD ID: 7267
Int'l Code: 1974-024C
Launch date: April 23, 1974
Source: Commonwealth of Independent States (former USSR) (CIS)
Launch site: PLESETSK MISSILE AND SPACE COMPLEX (PKMTR)
Your satellite tracking list
Your tracking list is empty




NASA's NSSDC Master Catalog

Two Line Element Set (TLE):
1 07267U 74024C   26255.25644041 -.00000009  00000-0  45993-4 0  9999
2 07267  74.0222 358.3710 0083055 270.8748 114.2655 12.61593752412614
Source of the keplerian elements: AFSPC